Weather Roundup
Issued by NWS

Home | Current Version | Previous Version | Text Only | Print | Product List | Glossary On
Versions: 1 2 3 4 5 6 7 8 9 10 11 12 13 14 15 16 17 18 19 20 21 22 23 24 25 26 27 28 29 30 31 32 33 34 35 36 37 38 39 40 41 42 43 44 45 46 47 48 49 50
000
NZUS93 KARX 290810
HRRWXR

CURRENT HOURLY OBSERVATIONS ACROSS
MUCH OF THE UPPER MISSISSIPPI VALLEY
NATIONAL WEATHER SERVICE LA CROSSE WI
200 AM CST MON DEC 29 2014


...SOUTHEAST MINNESOTA...


CITY           SKY/WX    TMP DP  RH WIND       PRES   REMARKS
ROCHESTER      CLOUDY    13   8  81 NE9       30.31R WCI   1
ROCHESTER/MAYO CLOUDY    13   7  76 N8        30.33R WCI   1
WINONA         CLOUDY    14  10  85 NW6       30.38R WCI   5
AUSTIN         CLOUDY    16  10  79 N6        30.32R WCI   7
ALBERT LEA     CLOUDY    16  12  86 N6        30.33R WCI   7
DODGE CENTER   CLOUDY    12   7  79 N10       30.32R WCI  -1
PRESTON        CLOUDY    13  10  87 NE6       30.31R WCI   4
OWATONNA       CLOUDY    12   1  62 N7        30.34R WCI   2
FARIBAULT      CLOUDY    10   3  72 N10G16    30.37R WCI  -3
$$

...ELSEWHERE IN MINNESOTA...


CITY           SKY/WX    TMP DP  RH WIND       PRES   REMARKS
MINNEAPOLIS    CLOUDY     9  -2  61 N10       30.41R WCI  -5
INTNL FALLS    CLEAR    -13 -18  78 W6        30.42R WCI -27
DULUTH         CLEAR     -4 -10  75 NW7       30.35R WCI -18
RED WING       CLOUDY    10   0  61 CALM      30.38S
REDWOOD FALLS  CLOUDY    13   3  64 N7        30.39R WCI   3
MANKATO        CLOUDY    12   3  67 NE10      30.37R WCI  -1
WORTHINGTON    MOCLDY    12 -29  14 N15       30.32R WCI  -4
FAIRMONT       CLOUDY    16  12  86 NE9       30.33R WCI   4
$$

...SOUTHWEST WISCONSIN...


CITY           SKY/WX    TMP DP  RH WIND       PRES   REMARKS
LA CROSSE      CLOUDY    18  12  77 N6        30.36R WCI  10
PRAIRIE DU CHI CLOUDY    24  15  69 N3        30.32R
BOSCOBEL       CLOUDY    23  12  62 NE7       30.33R WCI  15
LONE ROCK      CLOUDY    25  12  58 NE6       30.33R WCI  18
PLATTEVILLE    CLOUDY    24  21  85 CALM      30.29R
FORT MC COY    MOCLDY    15  11  86 CALM      30.35R
CAMP DOUGLAS   MOCLDY    14  13  96 N1        30.33R
VIROQUA        CLOUDY    18  15  90 N3        30.30R
WIS DELLS      CLOUDY    18  13  82 N3        30.30R
$$

...ELSEWHERE IN WISCONSIN...


CITY           SKY/WX    TMP DP  RH WIND       PRES   REMARKS
MILWAUKEE      MOCLDY    26  19  74 N7        30.29R WCI  18
MADISON        CLOUDY    21  14  74 N10       30.30R WCI  10
GREEN BAY      PTCLDY    15   7  70 N7        30.34R WCI   5
EAU CLAIRE     CLOUDY     5  -1  76 NW5       30.39R WCI  -4
BLACK RVR FLS  FAIR      11   8  85 N6        30.35R WCI   2
MEDFORD        MOCLDY   N/A N/A N/A N3        30.29S
WAUSAU         PTCLDY     3   0  87 NW3       30.30R
WIS RAPIDS     MOCLDY    12   6  77 N5        30.34R WCI   4
MARSHFIELD     MOCLDY     7   2  80 N7        30.31R WCI  -5
RICE LAKE      PTCLDY    -1  -6  78 NW3       30.38R
$$

...NORTHEAST IOWA...


CITY           SKY/WX    TMP DP  RH WIND       PRES   REMARKS
DECORAH        CLOUDY    19  14  79 N3        30.30R
MASON CITY     CLOUDY    18  14  84 NE10      30.32R WCI   6
CHARLES CITY   CLOUDY    19  16  86 NE13      30.30S WCI   7
OELWEIN        CLOUDY    23  19  86 NE12      30.28S WCI  12
$$

...ELSEWHERE IN IOWA...


CITY           SKY/WX    TMP DP  RH WIND       PRES   REMARKS
DES MOINES     CLOUDY    28  22  78 NE8       30.25R WCI  20
IOWA CITY      CLOUDY    28  20  71 NE6       30.28R WCI  22
FORT DODGE     CLOUDY    19  16  86 NE9       30.29S WCI   9
$$

...NORTHERN ILLINOIS...


CITY           SKY/WX    TMP DP  RH WIND       PRES   REMARKS
CHICAGO-OHARE  MOCLDY    27  19  72 N5        30.26R WCI  22
CHICAGO-MIDWAY MOCLDY    27  20  75 NW6       30.27R WCI  20
MOLINE         CLOUDY    24  20  84 CALM      30.27R
ROCKFORD       CLOUDY    25  20  81 CALM      30.29R
PEORIA         CLEAR     22  17  81 CALM      30.27R
$$

NOTE: "FAIR" INDICATES FEW OR NO CLOUDS BELOW 12,000 FEET WITH NO
SIGNIFICANT WEATHER AND/OR OBSTRUCTIONS TO VISIBILITY. WIND
SPEEDS ARE IN MILES-PER-HOUR.



USA.gov is the U.S. government's official web portal to all federal, state and local government web resources and services.